Tracking 19827 objects as of 23-Aug-2019
HD Live streaming from Space Station
objects crossing your sky now

COSMOS 2251 DEB

Track COSMOS 2251 DEB now!
10-day predictions


NORAD ID: 34819
Int'l Code: 1993-036ABJ
Perigee: 740.5 km
Apogee: 775.5 km
Inclination: 74.0 °
Period: 99.8 minutes
Semi major axis: 7128 km
RCS: 0.004 m2 (small)
Launch date: June 16, 1993
Source: Commonwealth of Independent States (former USSR) (CIS)
Launch site: PLESETSK MISSILE AND SPACE COMPLEX (PKMTR)

Note: This is SATELLITE DEBRIS
aabbcc
Your satellite tracking list
Your tracking list is empty




NASA's NSSDC Master Catalog

Two Line Element Set (TLE):
1 34819U 93036ABJ 19234.45187796  .00000337  00000-0  10977-3 0  9992
2 34819  74.0265 138.6764 0024508  69.9421  44.9757 14.42314372549955
Source of the keplerian elements: AFSPC